Date String (YYYY-MM-DD hh:mm:ss) UTC,Instrument flags,absolute air pressure of the measurement (hPa),sample flow rate (lpm),inlet stack bypass flow (lpm),air temperature of the measurement (°C),ambient temperature measured by the external sensor (°C),aerosol sample conditioner tube jacket temperature (°C),OPC LED temperature (°C),internal box temperature (°C),relative humidity of the measurement (%),span deviation,mass concentration of particles derived from Lorenz-Mie calculation of OPC scattering (μg/m³),mass concentration of particles derived from Lorenz-Mie calculation of OPC scattering (μg/m³),mass concentration of particles derived from Lorenz-Mie calculation of OPC scattering (μg/m³)
DateTimeUTC,F1_M11,P_M11,Q1_M11,Q2_M11,T1_M11,T2_M11,T3_M11,T4_M11,T5_M11,U1_M11,ZSPAN_M11,X0_M11,X2_M11,X1_M11
2024-05-08 14:00:00,SystemResetWarning,0819.2,5.00,000.00,020.2,019.6,000.0,028.3,021.8,010.4,0000.0,0003.92,0001.12,0000.68
2024-05-08 14:01:00,SystemResetWarning,0819.3,5.00,000.00,020.2,019.6,000.0,028.3,021.8,010.2,0000.0,0004.04,0001.17,0000.69
2024-05-08 14:02:00,SystemResetWarning,0819.3,5.00,000.00,020.2,019.6,000.0,028.3,021.8,010.2,0000.0,0004.25,0001.20,0000.70
2024-05-08 14:03:00,SystemResetWarning,0819.2,5.01,000.00,020.2,019.6,000.0,028.3,021.8,010.1,0000.0,0004.63,0001.21,0000.71
2024-05-08 14:04:00,SystemResetWarning,0819.3,5.00,000.00,020.2,019.6,000.0,028.3,021.8,010.0,0000.0,0004.02,0001.21,0000.71
2024-05-08 14:05:00,SystemResetWarning,0819.3,5.00,000.00,020.2,019.6,000.0,028.3,021.8,010.1,0000.0,0003.16,0001.20,0000.71
2024-05-08 14:06:00,SystemResetWarning,0819.3,5.00,000.00,020.2,019.6,000.0,028.4,021.8,010.2,0000.0,0002.91,0001.19,0000.70
2024-05-08 14:07:00,SystemResetWarning,0819.3,5.00,000.00,020.2,019.7,000.0,028.4,021.8,010.2,0000.0,0002.73,0001.15,0000.70
2024-05-08 14:08:00,SystemResetWarning,0819.3,5.00,000.00,020.2,019.7,000.0,028.4,021.8,010.1,0000.0,0002.76,0001.18,0000.70
2024-05-08 14:09:00,SystemResetWarning,0819.2,5.00,000.00,020.2,019.7,000.0,028.4,021.8,010.0,0000.0,0002.73,0001.20,0000.71
2024-05-08 14:10:00,SystemResetWarning,0819.3,5.00,000.00,020.2,019.7,000.0,028.4,021.8,010.0,0000.0,0003.66,0001.16,0000.71
2024-05-08 14:11:00,SystemResetWarning,0819.3,5.00,000.00,020.3,019.7,000.0,028.4,021.8,009.8,0000.0,0003.70,0001.15,0000.70
2024-05-08 14:12:00,SystemResetWarning,0819.3,4.99,000.00,020.3,019.7,000.0,028.4,021.8,010.0,0000.0,0003.56,0001.09,0000.70
2024-05-08 14:13:00,SystemResetWarning,0819.3,4.99,000.00,020.3,019.7,000.0,028.4,021.8,010.3,0000.0,0004.00,0001.11,0000.69
2024-05-08 14:14:00,SystemResetWarning,0819.2,5.00,000.00,020.3,019.7,000.0,028.4,021.9,009.9,0000.0,0004.31,0001.12,0000.68
2024-05-08 14:15:00,SystemResetWarning,0819.2,5.00,000.00,020.3,019.7,000.0,028.4,021.9,009.8,0000.0,0005.48,0001.09,0000.67
2024-05-08 14:16:00,SystemResetWarning,0819.2,5.00,000.00,020.3,019.7,000.0,028.4,021.9,009.9,0000.0,0005.67,0001.05,0000.67
2024-05-08 14:17:00,SystemResetWarning,0819.2,5.00,000.00,020.3,019.7,000.0,028.4,021.9,009.7,0000.0,0006.70,0001.06,0000.68
2024-05-08 14:18:00,SystemResetWarning,0819.2,5.00,000.00,020.3,019.7,000.0,028.4,021.9,009.6,0000.0,0007.50,0001.09,0000.69
2024-05-08 14:19:00,SystemResetWarning,0819.1,5.00,000.00,020.3,019.7,000.0,028.4,021.9,009.8,0000.0,0007.61,0001.13,0000.68
2024-05-08 14:20:00,SystemResetWarning,0819.1,5.00,000.00,020.3,019.7,000.0,028.4,021.9,009.7,0000.0,0007.63,0001.11,0000.68
2024-05-08 14:21:00,SystemResetWarning,0819.1,5.00,000.00,020.3,019.7,000.0,028.4,021.9,009.8,0000.0,0007.04,0001.14,0000.68
2024-05-08 14:22:00,SystemResetWarning,0819.1,5.00,000.00,020.3,019.7,000.0,028.4,021.9,009.7,0000.0,0006.79,0001.13,0000.69
2024-05-08 14:23:00,SystemResetWarning,0819.1,5.00,000.00,020.3,019.7,000.0,028.4,021.9,009.7,0000.0,0006.72,0001.13,0000.68
2024-05-08 14:24:00,SystemResetWarning,0819.2,5.00,000.00,020.3,019.7,000.0,028.4,021.9,010.0,0000.0,0006.25,0001.08,0000.68
2024-05-08 14:25:00,SystemResetWarning,0819.2,5.00,000.00,020.3,019.7,000.0,028.4,021.9,010.0,0000.0,0005.32,0001.04,0000.67
2024-05-08 14:26:00,SystemResetWarning,0819.2,5.00,000.00,020.3,019.7,000.0,028.4,021.9,009.9,0000.0,0004.12,0001.05,0000.67
2024-05-08 14:27:00,SystemResetWarning,0819.1,5.00,000.00,020.3,019.7,000.0,028.4,021.9,010.0,0000.0,0003.83,0001.05,0000.67
2024-05-08 14:28:00,SystemResetWarning,0819.0,5.00,000.00,020.3,019.7,000.0,028.4,021.9,009.8,0000.0,0002.87,0001.02,0000.66
2024-05-08 14:29:00,SystemResetWarning,0819.1,5.01,000.00,020.3,019.7,000.0,028.4,021.9,009.4,0000.0,0002.98,0001.01,0000.66
2024-05-08 14:30:00,SystemResetWarning,0819.1,5.00,000.00,020.3,019.7,000.0,028.4,022.0,009.4,0000.0,0002.92,0000.97,0000.66
2024-05-08 14:31:00,SystemResetWarning,0819.0,5.00,000.00,020.3,019.7,000.0,028.4,022.0,009.7,0000.0,0002.95,0000.95,0000.65
2024-05-08 14:32:00,SystemResetWarning,0819.1,5.00,000.00,020.3,019.7,000.0,028.4,022.0,009.6,0000.0,0003.58,0000.94,0000.66
2024-05-08 14:33:00,SystemResetWarning,0819.1,5.00,000.00,020.3,019.7,000.0,028.4,022.0,009.6,0000.0,0003.66,0000.95,0000.66
2024-05-08 14:34:00,SystemResetWarning,0819.1,5.00,000.00,020.3,019.7,000.0,028.4,021.9,009.5,0000.0,0003.77,0000.96,0000.66
2024-05-08 14:35:00,SystemResetWarning,0819.2,5.00,000.00,020.3,019.7,000.0,028.4,022.0,009.7,0000.0,0003.85,0000.98,0000.66
2024-05-08 14:36:00,SystemResetWarning,0819.0,5.00,000.00,020.4,019.7,000.0,028.4,022.0,009.8,0000.0,0004.06,0001.01,0000.67
2024-05-08 14:37:00,SystemResetWarning,0819.0,5.00,000.00,020.4,019.7,000.0,028.4,022.0,009.6,0000.0,0004.76,0001.04,0000.67
2024-05-08 14:38:00,SystemResetWarning,0819.1,5.00,000.00,020.4,019.7,000.0,028.5,022.0,009.8,0000.0,0004.92,0001.10,0000.68
2024-05-08 14:39:00,SystemResetWarning,0819.2,5.00,000.00,020.4,019.7,000.0,028.4,021.9,010.3,0000.0,0004.91,0001.10,0000.68
2024-05-08 14:40:00,SystemResetWarning,0819.3,5.01,000.00,020.4,019.7,000.0,028.4,021.9,010.0,0000.0,0003.88,0001.10,0000.69
2024-05-08 14:41:00,SystemResetWarning,0819.2,5.00,000.00,020.4,019.8,000.0,028.5,022.0,009.9,0000.0,0003.93,0001.13,0000.69
2024-05-08 14:42:00,SystemResetWarning,0819.3,5.00,000.00,020.4,019.8,000.0,028.5,022.0,010.4,0000.0,0003.87,0001.15,0000.69
2024-05-08 14:43:00,SystemResetWarning,0819.3,5.00,000.00,020.4,019.8,000.0,028.5,021.9,009.9,0000.0,0003.73,0001.18,0000.69
2024-05-08 14:44:00,SystemResetWarning,0819.4,5.00,000.00,020.4,019.8,000.0,028.5,021.9,009.5,0000.0,0004.66,0001.20,0000.69
2024-05-08 14:45:00,SystemResetWarning,0819.4,5.00,000.00,020.4,019.8,000.0,028.5,021.9,010.0,0000.0,0004.61,0001.19,0000.69
2024-05-08 14:46:00,SystemResetWarning,0819.4,5.00,000.00,020.4,019.8,000.0,028.5,021.9,009.9,0000.0,0004.75,0001.21,0000.68
2024-05-08 14:47:00,SystemResetWarning,0819.4,5.00,000.00,020.4,019.8,000.0,028.5,022.0,009.6,0000.0,0004.70,0001.21,0000.69
2024-05-08 14:48:00,SystemResetWarning,0819.4,5.00,000.00,020.4,019.8,000.0,028.5,022.0,010.1,0000.0,0004.79,0001.22,0000.69
2024-05-08 14:49:00,SystemResetWarning,0819.3,5.00,000.00,020.4,019.9,000.0,028.5,022.0,009.7,0000.0,0005.20,0001.21,0000.68
2024-05-08 14:50:00,SystemResetWarning,0819.4,5.00,000.00,020.4,019.9,000.0,028.5,022.0,009.5,0000.0,0005.28,0001.25,0000.70
2024-05-08 14:51:00,SystemResetWarning,0819.3,4.99,000.00,020.4,019.9,000.0,028.5,022.0,009.5,0000.0,0005.12,0001.22,0000.69
2024-05-08 14:52:00,SystemResetWarning,0819.3,5.01,000.00,020.4,019.9,000.0,028.5,022.0,009.7,0000.0,0004.93,0001.18,0000.68
2024-05-08 14:53:00,SystemResetWarning,0819.3,5.00,000.00,020.5,019.9,000.0,028.5,022.0,009.8,0000.0,0004.89,0001.13,0000.68
2024-05-08 14:54:00,SystemResetWarning,0819.4,5.01,000.00,020.5,019.9,000.0,028.6,022.0,009.4,0000.0,0004.57,0001.08,0000.67
2024-05-08 14:55:00,SystemResetWarning,0819.4,5.00,000.00,020.5,019.9,000.0,028.6,022.0,009.7,0000.0,0003.29,0001.05,0000.66
2024-05-08 14:56:00,SystemResetWarning,0819.3,4.99,000.00,020.5,019.9,000.0,028.6,022.1,009.6,0000.0,0003.31,0001.06,0000.66
2024-05-08 14:57:00,SystemResetWarning,0819.3,5.00,000.00,020.5,019.9,000.0,028.6,022.1,009.5,0000.0,0003.33,0001.11,0000.67
2024-05-08 14:58:00,SystemResetWarning,0819.4,5.00,000.00,020.5,019.9,000.0,028.6,022.1,009.4,0000.0,0003.38,0001.12,0000.66
2024-05-08 14:59:00,SystemResetWarning,0819.4,5.00,000.00,020.5,019.9,000.0,028.6,022.1,009.6,0000.0,0002.48,0001.06,0000.66
